SCP
0 0 0 0 0 -0 0 -0 -0 -0 -0 -0 -0 0 -0 -0 0 0 0 0 0 0 0 0 0 0 0 0 0 0 0 0 0 0 0 0 0 -0 0 0 0 0 -0
0 0 0 0 -0 0 0 0 0 0 0 0 0 0 0 0 0 0 0 0 0 0 0 0 0 0 0 0 0 0 0 0 0 0 0 0 0 0 0 0 0 0 -0
0 0 0 0 0 0 0 0 0 0 0 0 0 0 0 0 0 0 0 0 0 0 0 0 0 0 0 -0 0 0 0 0 0 0 0 0 0 0 0 0 0 0 0
0 0 0 0 0 0 0 0 0 0 0 0 0 0 0 0 0 0 0 0 0 0 0 0 0 0 0 0 -0 -0 0 0 0 0 0 0 0 0 0 0 0 0 0
0 0 0 0 0 0 0 0 0 0 0 0 0 0 0 0 0 0 0 0 0 0 0 0 0 0 0 0 0 0 0 0 0 0 0 0 0 0 0 0 0 0 0
0 0 0 0 0 0 0 0 0 0 0 0 0 0 0 0 0 0 0 0 0 0 0 0 0 0 0 0 0 0 0 0 0 0 0 0 0 0 0 0 0 0 0
0 0 0 0 0 0 0 0 0 0 0 0 0 0 0 0 0 0 0 0 0 0 0 0 0 0 0 0 0 0 0 0 0 0 0 0 0 0 0 0 0 0 0
0 0 0 0 0 0 0 0 0 0 0 0 0 0 0 0 0 0 0 0 0 0 0 0 0 0 0 0 0 0 0 0 0 0 0 0 0 0 0 0 0 0 0
0 0 0 0 0 0 0 0 0 0 0 0 0 0 0 0 0 0 0 0 0 0 0 0 0 0 0 0 0 0 0 0 0 0 0 0 0 0 0 0 0 0 0
0 0 0 0 0 0 0 0 0 0 0 0 0 0 0 0 0 0 0 0 0 0 0 0 0 0 0 0 0 0 0 0 0 0 0 0 0 0 0 0 0 0 0
0 0 0 0 0 0 0 0 0 0 0 0 0 0 0 0 0 0 0 0 0 0 0 0 0 0 0 0 0 0 0 0 0 0 0 0 0 0 0 0 0 0 0
0 0 0 0 0 0 0 0 0 0 0 0 0 0 0 0 0 0 0 0 0 0 0 0 0 0 0 0 0 0 0 0 0 0 0 0 0 0 0 0 0 0 0
0 0 0 0 0 0 0 0 0 0 0 0 0 0 0 0 0 0 0 0 0 0 0 0 0 0 0 0 0 0 0 0 0 0 0 0 0 0 0 0 0 0 0
0 0 0 0 0 0 0 0 0 0 0 0 0 0 0 0 0 0 0 0 0 0 0 0 0 0 0 0 0 0 0 0 0 0 0 0 0 0 0 0 0 0 0
0 0 0 0 0 0 0 0 0 0 0 0 0 0 0 0 0 0 0 0 0 0 0 0 0 0 0 0 0 0 0 0 0 0 0 0 0 0 0 0 0 0 0
0 0 0 0 0 0 0 0 0 0 0 0 0 0 0 0 0 0 0 0 0 0 0 -0 -0 -0 0 -0 0 0 0 0 0 0 0 0 0 0 0 0 0 0 0
0 0 0 0 0 0 0 0 0 0 0 0 0 0 0 0 0 0 0 0 0 0 0 0 -0 -0 -0 -0 -0 0 0 0 0 0 0 0 0 0 0 0 0 0 0
0 0 0 0 0 0 0 0 0 0 0 0 0 0 0 0 0 0 0 0 0 0 0 0 -0 -0 -0 -0 -0 -0 -0 0 0 0 0 0 0 0 0 0 0 0 0
0 0 0 0 0 0 0 0 0 0 0 0 0 0 0 0 0 0 0 0 0 0 0 0 0 -0 -0 -0 -0 0 0 0 0 0 0 0 0 0 0 0 0 0 0
0 0 0 0 0 0 0 0 0 0 0 0 0 0 0 0 0 0 0 0 0 0 0 0 0 -0 -0 -0 -0 0 -0 0 0 0 0 0 0 0 0 0 0 0 0
0 0 0 0 0 0 0 0 0 0 0 0 0 0 0 0 0 0 0 0 0 0 0 0 0 0 0 -0 -0 -0 -0 -0 0 0 0 0 0 0 0 0 0 0 0
0 0 0 0 0 0 0 0 0 0 0 0 0 0 0 0 0 0 0 0 0 0 0 0 0 0 0 0 0 -0 -0 -0 0 0 0 0 0 0 0 0 0 0 0
0 0 0 0 0 0 0 0 0 0 0 0 0 0 0 0 0 0 0 0 0 0 0 0 0 0 0 0 0 0 0 0 0 -0 0 0 0 0 0 0 0 0 0
0 0 0 0 0 0 0 0 0 0 0 0 0 0 0 0 0 0 0 0 0 0 0 0 0 0 0 0 0 0 0 0 0 0 0 0 0 0 0 0 0 0 0
0 0 0 0 0 0 0 0 0 0 0 0 0 0 0 0 0 0 0 0 0 0 0 0 0 0 0 0 0 0 0 0 0 0 0 0 0 0 0 0 0 0 0
0 0 0 0 0 0 0 0 0 0 0 0 0 0 0 0 0 0 0 0 0 0 0 0 0 0 0 0 0 0 0 0 0 0 0 0 0 0 0 0 0 0 0
Wind_Speed_500mb
45 38 27 26 23 18 18 19 18 17 17 17 16 14 14 11 9 8 6 4 4 5 3 2 3 4 6 7 8 11 13 12 12 13 17 21 27 30 20 5 12 13 17
47 44 35 27 19 12 14 18 16 15 16 14 14 12 11 9 7 6 5 4 3 3 1 4 5 6 8 10 11 13 13 15 15 17 19 21 24 24 21 1 10 10 12
39 38 38 29 21 17 13 14 14 13 13 13 11 10 10 8 7 7 6 6 8 9 10 9 8 8 11 11 11 13 15 16 18 18 18 18 21 21 19 5 11 8 13
33 30 30 30 21 20 18 13 13 12 11 10 10 9 10 10 10 11 12 14 15 16 17 17 18 18 16 15 16 15 15 18 20 19 20 20 18 20 17 11 12 13 13
33 28 25 24 21 17 13 12 12 12 11 10 8 8 8 9 12 14 16 17 19 20 21 22 23 22 21 21 21 20 19 19 21 23 21 22 19 20 17 14 10 21 16
34 31 27 23 21 18 16 14 11 9 8 7 7 9 11 14 14 15 18 19 20 22 24 26 27 27 25 25 26 27 26 25 25 26 23 23 24 21 22 17 17 20 26
28 28 28 25 21 18 15 12 10 8 7 7 9 10 12 16 17 19 21 23 25 26 27 28 29 29 30 31 32 32 30 29 30 31 28 24 25 25 24 24 21 20 28
25 26 24 23 21 18 13 10 8 6 6 9 10 12 14 16 17 19 22 25 27 30 31 33 34 34 34 33 35 36 35 34 35 35 34 30 26 28 27 27 25 22 26
27 26 26 23 20 16 13 9 9 8 9 11 12 13 15 17 18 20 23 25 27 29 31 33 35 37 38 38 39 40 40 40 41 40 40 39 33 29 30 31 28 26 28
31 28 24 21 17 12 8 8 9 8 9 11 13 14 15 17 19 20 21 23 25 28 31 33 35 36 37 40 42 44 45 44 46 46 46 45 42 38 35 35 36 34 32
37 30 24 18 14 10 8 9 9 10 11 14 15 16 17 18 20 22 23 25 26 29 30 32 34 37 38 40 43 45 46 49 52 52 51 52 52 47 43 42 40 41 41
40 33 26 22 15 11 11 12 12 13 14 15 17 17 19 20 22 23 24 26 28 30 31 33 35 36 38 39 42 45 47 50 52 54 56 57 60 59 54 47 46 48 48
37 36 29 22 18 15 13 13 14 15 17 18 19 19 19 20 22 24 26 27 28 30 31 33 34 36 39 41 41 43 45 48 52 55 57 57 61 65 67 61 57 52 53
39 32 30 23 17 15 15 16 17 19 21 21 21 21 21 22 24 26 28 30 32 35 36 37 39 40 41 43 45 47 48 50 52 55 56 58 62 65 69 72 69 65 60
38 35 29 23 18 16 15 18 21 23 23 23 23 23 24 26 28 31 33 36 38 40 42 44 46 47 48 49 49 51 51 52 53 56 58 58 62 66 71 71 73 74 74
37 35 32 25 23 19 17 19 21 23 24 25 26 27 29 31 34 36 38 40 42 45 47 49 52 54 55 58 58 60 61 61 60 60 61 61 61 65 70 74 75 80 84
36 34 33 28 26 23 22 21 23 26 27 28 29 30 32 35 39 41 43 44 45 47 49 52 54 57 60 63 64 66 67 67 68 68 68 68 66 65 67 72 76 79 82
36 37 33 30 30 28 27 26 28 29 29 30 32 33 36 39 43 44 46 46 48 50 53 56 59 62 64 67 71 72 73 75 75 74 73 72 71 70 68 68 73 77 81
37 36 34 32 30 31 30 30 32 32 30 31 33 37 41 45 47 48 48 49 51 54 55 59 62 66 71 74 79 80 79 78 77 75 74 73 70 68 68 67 71 75 79
40 38 37 33 31 32 33 35 33 32 30 33 37 41 46 47 48 48 49 51 55 58 59 62 67 69 74 79 86 88 86 81 75 68 59 55 54 54 57 60 64 70 75
46 41 39 36 33 33 34 33 33 31 33 37 41 44 47 47 47 47 50 54 57 60 63 65 70 72 73 72 80 83 84 73 52 56 50 44 40 44 45 46 51 58 63
44 41 40 35 32 32 31 32 36 36 38 41 42 44 46 45 45 48 53 56 59 64 65 66 68 72 71 62 60 63 46 64 44 27 41 40 37 38 37 37 40 46 53
43 40 35 30 28 29 32 37 39 41 43 43 43 43 41 42 46 51 55 59 62 66 68 69 68 64 63 59 43 32 19 15 59 33 26 46 43 47 48 48 49 50 52
38 34 31 28 26 28 35 40 43 45 46 44 43 40 38 43 48 51 55 60 64 68 69 67 63 58 53 53 44 38 35 41 24 42 43 51 63 53 51 53 55 59 60
35 30 25 22 25 32 40 45 46 45 42 41 40 40 42 46 49 52 57 62 66 67 68 61 53 45 40 42 37 36 40 43 46 56 78 50 64 71 67 58 48 50 48
34 30 26 28 32 37 41 42 41 40 40 40 39 42 45 47 48 53 59 61 61 59 56 48 41 38 36 37 39 40 41 46 45 51 64 71 74 78 74 69 64 51 47
Wind_Direction_500mb
177 179 176 162 164 159 148 148 148 144 148 150 151 149 146 150 151 152 158 168 153 76 21 352 331 319 313 306 301 308 306 306 315 328 338 342 352 0 11 135 128 130 138
179 182 184 192 193 193 180 156 149 147 153 158 163 167 169 169 176 183 192 201 228 223 110 337 302 278 287 302 302 298 293 295 302 315 326 333 342 354 4 194 160 160 164
176 186 186 194 203 200 190 160 168 169 174 178 182 184 189 197 209 217 238 257 255 252 253 254 255 267 268 268 280 288 288 287 288 295 307 317 332 343 352 318 198 182 194
169 177 189 198 201 183 181 183 181 183 190 196 203 216 223 234 247 258 264 265 271 275 274 267 267 265 270 281 277 270 278 283 282 282 294 304 318 326 334 337 229 206 209
169 172 167 163 167 161 164 176 182 184 190 199 215 234 252 262 272 278 281 283 281 280 281 279 282 286 284 279 281 281 276 270 275 279 287 293 304 311 313 310 263 222 224
167 170 170 163 163 160 156 159 169 175 182 206 229 242 258 266 270 273 274 277 277 278 278 279 279 279 276 271 271 272 276 274 274 276 278 284 296 299 297 296 285 236 229
170 166 167 164 161 159 161 167 177 194 212 233 245 256 264 270 273 272 272 271 272 274 276 277 278 278 274 272 272 272 274 275 275 276 276 273 282 292 289 289 286 271 236
177 170 168 165 163 163 169 182 204 229 262 272 274 275 278 279 278 277 276 278 278 277 277 277 276 275 275 276 275 274 272 271 270 271 274 275 272 281 279 283 281 277 262
179 179 175 174 174 177 185 205 230 247 262 276 285 289 290 291 292 291 287 284 283 282 281 279 278 277 275 275 273 272 272 271 272 272 273 273 272 268 273 277 272 272 267
187 187 187 187 189 193 205 237 256 270 280 288 296 300 303 304 301 298 297 294 292 289 288 286 284 284 281 277 273 270 269 269 268 268 268 271 272 267 264 267 276 268 264
191 191 195 198 205 212 230 254 270 279 286 296 298 302 306 309 310 310 307 305 302 298 297 295 293 291 288 286 282 278 274 269 266 265 265 265 266 264 261 261 262 268 264
197 199 203 211 216 230 240 252 268 278 285 288 292 296 302 309 311 312 311 309 307 305 303 302 299 297 294 290 287 284 282 277 273 269 265 263 263 264 262 256 259 261 264
203 206 211 217 228 237 245 261 275 286 293 293 292 295 300 307 311 313 312 309 306 305 303 302 300 300 299 297 294 291 287 283 279 275 271 266 263 262 261 258 256 254 258
209 209 217 226 235 242 260 273 286 292 291 288 286 291 298 305 310 311 310 309 307 306 306 306 304 302 301 300 299 296 294 291 287 282 276 272 267 264 259 260 257 255 255
213 217 223 234 232 246 267 279 285 288 287 287 288 293 299 305 309 311 312 312 311 309 309 307 305 304 303 301 300 299 297 294 291 287 283 277 271 267 265 261 256 256 255
220 225 229 234 239 251 267 285 291 285 283 285 287 293 301 306 308 310 311 311 310 309 310 309 308 306 305 304 302 300 298 296 294 292 288 282 276 271 266 263 260 254 254
230 231 237 240 244 255 266 280 291 283 278 280 282 289 297 302 305 308 308 308 307 308 308 308 307 306 306 305 304 303 301 299 297 296 292 288 283 276 270 266 264 260 256
234 236 239 241 246 255 266 277 288 282 273 275 279 289 297 302 304 305 306 307 308 309 309 309 308 307 307 306 305 303 303 302 299 296 294 290 284 280 274 267 264 261 257
238 235 233 238 245 254 266 275 282 278 273 277 286 294 299 302 304 305 306 308 308 309 309 309 309 310 310 308 306 304 304 302 302 300 294 291 287 281 275 269 263 260 257
235 231 230 234 240 252 263 271 275 276 275 280 287 294 298 300 302 303 306 307 309 309 310 310 310 309 310 310 307 306 304 305 305 299 297 292 287 283 274 270 266 262 259
229 228 230 231 241 254 264 270 276 276 275 281 289 294 298 300 302 303 305 307 308 309 310 311 311 311 310 311 311 307 306 311 305 300 299 294 288 278 276 272 269 266 264
222 226 226 233 245 257 262 271 273 276 279 285 290 294 297 299 301 303 305 307 308 309 309 310 310 309 308 310 312 315 315 313 300 302 295 288 279 281 276 274 274 273 272
214 215 223 238 248 252 260 266 272 277 281 285 288 293 297 300 303 306 308 308 309 309 308 308 307 304 303 301 302 297 318 304 317 308 286 291 280 276 278 279 277 276 274
206 210 223 234 241 257 267 273 277 279 281 285 287 293 297 300 303 304 305 306 306 306 305 303 300 297 294 293 291 283 276 278 299 307 303 293 295 293 290 288 283 277 277
206 218 221 234 257 271 275 276 275 274 277 281 288 293 298 301 304 306 306 307 307 307 306 305 302 297 290 288 290 289 285 281 277 275 290 303 297 302 306 306 299 294 289
204 199 221 252 268 276 277 275 270 270 273 280 287 294 298 300 304 307 309 309 308 308 307 305 301 296 293 284 284 283 280 280 277 280 285 293 295 301 303 302 304 309 304
Wind_Speed_850mb
45 38 27 26 23 18 18 19 18 17 17 17 16 14 14 11 9 8 6 4 4 5 3 2 3 4 6 7 8 11 13 12 12 13 17 21 27 30 20 5 12 13 17
47 44 35 27 19 12 14 18 16 15 16 14 14 12 11 9 7 6 5 4 3 3 1 4 5 6 8 10 11 13 13 15 15 17 19 21 24 24 21 1 10 10 12
39 38 38 29 21 17 13 14 14 13 13 13 11 10 10 8 7 7 6 6 8 9 10 9 8 8 11 11 11 13 15 16 18 18 18 18 21 21 19 5 11 8 13
33 30 30 30 21 20 18 13 13 12 11 10 10 9 10 10 10 11 12 14 15 16 17 17 18 18 16 15 16 15 15 18 20 19 20 20 18 20 17 11 12 13 13
33 28 25 24 21 17 13 12 12 12 11 10 8 8 8 9 12 14 16 17 19 20 21 22 23 22 21 21 21 20 19 19 21 23 21 22 19 20 17 14 10 21 16
34 31 27 23 21 18 16 14 11 9 8 7 7 9 11 14 14 15 18 19 20 22 24 26 27 27 25 25 26 27 26 25 25 26 23 23 24 21 22 17 17 20 26
28 28 28 25 21 18 15 12 10 8 7 7 9 10 12 16 17 19 21 23 25 26 27 28 29 29 30 31 32 32 30 29 30 31 28 24 25 25 24 24 21 20 28
25 26 24 23 21 18 13 10 8 6 6 9 10 12 14 16 17 19 22 25 27 30 31 33 34 34 34 33 35 36 35 34 35 35 34 30 26 28 27 27 25 22 26
27 26 26 23 20 16 13 9 9 8 9 11 12 13 15 17 18 20 23 25 27 29 31 33 35 37 38 38 39 40 40 40 41 40 40 39 33 29 30 31 28 26 28
31 28 24 21 17 12 8 8 9 8 9 11 13 14 15 17 19 20 21 23 25 28 31 33 35 36 37 40 42 44 45 44 46 46 46 45 42 38 35 35 36 34 32
37 30 24 18 14 10 8 9 9 10 11 14 15 16 17 18 20 22 23 25 26 29 30 32 34 37 38 40 43 45 46 49 52 52 51 52 52 47 43 42 40 41 41
40 33 26 22 15 11 11 12 12 13 14 15 17 17 19 20 22 23 24 26 28 30 31 33 35 36 38 39 42 45 47 50 52 54 56 57 60 59 54 47 46 48 48
37 36 29 22 18 15 13 13 14 15 17 18 19 19 19 20 22 24 26 27 28 30 31 33 34 36 39 41 41 43 45 48 52 55 57 57 61 65 67 61 57 52 53
39 32 30 23 17 15 15 16 17 19 21 21 21 21 21 22 24 26 28 30 32 35 36 37 39 40 41 43 45 47 48 50 52 55 56 58 62 65 69 72 69 65 60
38 35 29 23 18 16 15 18 21 23 23 23 23 23 24 26 28 31 33 36 38 40 42 44 46 47 48 49 49 51 51 52 53 56 58 58 62 66 71 71 73 74 74
37 35 32 25 23 19 17 19 21 23 24 25 26 27 29 31 34 36 38 40 42 45 47 49 52 54 55 58 58 60 61 61 60 60 61 61 61 65 70 74 75 80 84
36 34 33 28 26 23 22 21 23 26 27 28 29 30 32 35 39 41 43 44 45 47 49 52 54 57 60 63 64 66 67 67 68 68 68 68 66 65 67 72 76 79 82
36 37 33 30 30 28 27 26 28 29 29 30 32 33 36 39 43 44 46 46 48 50 53 56 59 62 64 67 71 72 73 75 75 74 73 72 71 70 68 68 73 77 81
37 36 34 32 30 31 30 30 32 32 30 31 33 37 41 45 47 48 48 49 51 54 55 59 62 66 71 74 79 80 79 78 77 75 74 73 70 68 68 67 71 75 79
40 38 37 33 31 32 33 35 33 32 30 33 37 41 46 47 48 48 49 51 55 58 59 62 67 69 74 79 86 88 86 81 75 68 59 55 54 54 57 60 64 70 75
46 41 39 36 33 33 34 33 33 31 33 37 41 44 47 47 47 47 50 54 57 60 63 65 70 72 73 72 80 83 84 73 52 56 50 44 40 44 45 46 51 58 63
44 41 40 35 32 32 31 32 36 36 38 41 42 44 46 45 45 48 53 56 59 64 65 66 68 72 71 62 60 63 46 64 44 27 41 40 37 38 37 37 40 46 53
43 40 35 30 28 29 32 37 39 41 43 43 43 43 41 42 46 51 55 59 62 66 68 69 68 64 63 59 43 32 19 15 59 33 26 46 43 47 48 48 49 50 52
38 34 31 28 26 28 35 40 43 45 46 44 43 40 38 43 48 51 55 60 64 68 69 67 63 58 53 53 44 38 35 41 24 42 43 51 63 53 51 53 55 59 60
35 30 25 22 25 32 40 45 46 45 42 41 40 40 42 46 49 52 57 62 66 67 68 61 53 45 40 42 37 36 40 43 46 56 78 50 64 71 67 58 48 50 48
34 30 26 28 32 37 41 42 41 40 40 40 39 42 45 47 48 53 59 61 61 59 56 48 41 38 36 37 39 40 41 46 45 51 64 71 74 78 74 69 64 51 47
Wind_Direction_850mb
177 179 176 162 164 159 148 148 148 144 148 150 151 149 146 150 151 152 158 168 153 76 21 352 331 319 313 306 301 308 306 306 315 328 338 342 352 0 11 135 128 130 138
179 182 184 192 193 193 180 156 149 147 153 158 163 167 169 169 176 183 192 201 228 223 110 337 302 278 287 302 302 298 293 295 302 315 326 333 342 354 4 194 160 160 164
176 186 186 194 203 200 190 160 168 169 174 178 182 184 189 197 209 217 238 257 255 252 253 254 255 267 268 268 280 288 288 287 288 295 307 317 332 343 352 318 198 182 194
169 177 189 198 201 183 181 183 181 183 190 196 203 216 223 234 247 258 264 265 271 275 274 267 267 265 270 281 277 270 278 283 282 282 294 304 318 326 334 337 229 206 209
169 172 167 163 167 161 164 176 182 184 190 199 215 234 252 262 272 278 281 283 281 280 281 279 282 286 284 279 281 281 276 270 275 279 287 293 304 311 313 310 263 222 224
167 170 170 163 163 160 156 159 169 175 182 206 229 242 258 266 270 273 274 277 277 278 278 279 279 279 276 271 271 272 276 274 274 276 278 284 296 299 297 296 285 236 229
170 166 167 164 161 159 161 167 177 194 212 233 245 256 264 270 273 272 272 271 272 274 276 277 278 278 274 272 272 272 274 275 275 276 276 273 282 292 289 289 286 271 236
177 170 168 165 163 163 169 182 204 229 262 272 274 275 278 279 278 277 276 278 278 277 277 277 276 275 275 276 275 274 272 271 270 271 274 275 272 281 279 283 281 277 262
179 179 175 174 174 177 185 205 230 247 262 276 285 289 290 291 292 291 287 284 283 282 281 279 278 277 275 275 273 272 272 271 272 272 273 273 272 268 273 277 272 272 267
187 187 187 187 189 193 205 237 256 270 280 288 296 300 303 304 301 298 297 294 292 289 288 286 284 284 281 277 273 270 269 269 268 268 268 271 272 267 264 267 276 268 264
191 191 195 198 205 212 230 254 270 279 286 296 298 302 306 309 310 310 307 305 302 298 297 295 293 291 288 286 282 278 274 269 266 265 265 265 266 264 261 261 262 268 264
197 199 203 211 216 230 240 252 268 278 285 288 292 296 302 309 311 312 311 309 307 305 303 302 299 297 294 290 287 284 282 277 273 269 265 263 263 264 262 256 259 261 264
203 206 211 217 228 237 245 261 275 286 293 293 292 295 300 307 311 313 312 309 306 305 303 302 300 300 299 297 294 291 287 283 279 275 271 266 263 262 261 258 256 254 258
209 209 217 226 235 242 260 273 286 292 291 288 286 291 298 305 310 311 310 309 307 306 306 306 304 302 301 300 299 296 294 291 287 282 276 272 267 264 259 260 257 255 255
213 217 223 234 232 246 267 279 285 288 287 287 288 293 299 305 309 311 312 312 311 309 309 307 305 304 303 301 300 299 297 294 291 287 283 277 271 267 265 261 256 256 255
220 225 229 234 239 251 267 285 291 285 283 285 287 293 301 306 308 310 311 311 310 309 310 309 308 306 305 304 302 300 298 296 294 292 288 282 276 271 266 263 260 254 254
230 231 237 240 244 255 266 280 291 283 278 280 282 289 297 302 305 308 308 308 307 308 308 308 307 306 306 305 304 303 301 299 297 296 292 288 283 276 270 266 264 260 256
234 236 239 241 246 255 266 277 288 282 273 275 279 289 297 302 304 305 306 307 308 309 309 309 308 307 307 306 305 303 303 302 299 296 294 290 284 280 274 267 264 261 257
238 235 233 238 245 254 266 275 282 278 273 277 286 294 299 302 304 305 306 308 308 309 309 309 309 310 310 308 306 304 304 302 302 300 294 291 287 281 275 269 263 260 257
235 231 230 234 240 252 263 271 275 276 275 280 287 294 298 300 302 303 306 307 309 309 310 310 310 309 310 310 307 306 304 305 305 299 297 292 287 283 274 270 266 262 259
229 228 230 231 241 254 264 270 276 276 275 281 289 294 298 300 302 303 305 307 308 309 310 311 311 311 310 311 311 307 306 311 305 300 299 294 288 278 276 272 269 266 264
222 226 226 233 245 257 262 271 273 276 279 285 290 294 297 299 301 303 305 307 308 309 309 310 310 309 308 310 312 315 315 313 300 302 295 288 279 281 276 274 274 273 272
214 215 223 238 248 252 260 266 272 277 281 285 288 293 297 300 303 306 308 308 309 309 308 308 307 304 303 301 302 297 318 304 317 308 286 291 280 276 278 279 277 276 274
206 210 223 234 241 257 267 273 277 279 281 285 287 293 297 300 303 304 305 306 306 306 305 303 300 297 294 293 291 283 276 278 299 307 303 293 295 293 290 288 283 277 277
206 218 221 234 257 271 275 276 275 274 277 281 288 293 298 301 304 306 306 307 307 307 306 305 302 297 290 288 290 289 285 281 277 275 290 303 297 302 306 306 299 294 289
204 199 221 252 268 276 277 275 270 270 273 280 287 294 298 300 304 307 309 309 308 308 307 305 301 296 293 284 284 283 280 280 277 280 285 293 295 301 303 302 304 309 304